Location: Sihaung
(22.8641°N, 94.0549°E)
Time: 16:55:58
(UTC+00:00)

Cosmos 1602 - Pass Details

Date: 03 March 2021
Orbit: 512 x 534 km, 82.5° (Epoch: 13 April)

Event Time Altitude Azimuth Distance (km) Brightness Sun altitude
Rises 12:11:53 0° 188° (S) 2,633 7.5 -6.3°
Reaches altitude 10° 12:14:00 10° 190° (S) 1,751 6.6 -6.8°
Maximum altitude 12:17:50 73° 275° (W) 550 4.0 -7.7°
Drops below altitude 10° 12:21:43 10° 1° (N) 1,772 6.4 -8.5°
Sets 12:23:53 0° 3° (N) 2,667 7.3 -9.0°
